Sturgis, MI

1:30 PM EDT on March 25, 2017 (GMT -0400)
Kirsch Municipal

Weather History for KIRS - September, 2013

Change the Weather History Date:

Sunday, September 22, 2013

  Actual Average (KHAI) Record (KHAI)
Temperature  
Mean Temperature 52 °F -  
Max Temperature 60 °F 69 °F 89 °F (1970)
Min Temperature 42 °F 48 °F 32 °F (1972)
Degree Days  
Heating Degree Days 13    
Growing Degree Days 2 (Base 50)    
Moisture  
Dew Point 44 °F    
Average Humidity 73    
Maximum Humidity 93    
Minimum Humidity 48    
Precipitation  
Precipitation 0.00 in - - ()
Sea Level Pressure  
Sea Level Pressure 30.00 in    
Wind  
Wind Speed 4 mph (NNE)    
Max Wind Speed 10 mph    
Max Gust Speed 18 mph    
Visibility 10 miles    
Events      
Averages and records for this station are not official NWS values.
T = Trace of Precipitation, MM = Missing Value Source: NWS Daily Summary

Daily Weather History Graph

Daily Weather History Graph

Search for Another Location

Airport or City:

Trip Planner

Search our weather history database for the weather conditions in past years. The results will help you decide how hot, cold, wet, or windy it might be!

Date:

Astronomy

Sep. 22, 2013 Rise Set
Actual Time 7:29 AM EDT 7:38 PM EDT
Civil Twilight 7:01 AM EDT 8:06 PM EDT
Nautical Twilight 6:29 AM EDT 8:38 PM EDT
Astronomical Twilight 5:55 AM EDT 9:11 PM EDT
Moon 9:24 PM EDT (9/22) 10:52 AM EDT (9/22)
Length of Visible Light 13h 04m
Length of Day
12h 09m
Waning Gibbous, 89% of the Moon is Illuminated
Sep 22
Waning Gibbous
Sep 26
Last Quarter
Oct 4
New
Oct 11
First Quarter
Oct 18
Full

Hourly Weather History & Observations

Time (EDT) Temp. Windchill Dew Point Humidity Pressure Visibility Wind Dir Wind Speed Gust Speed Precip Events Conditions
12:15 AM 55.4 °F - 48.2 °F 77% 29.91 in 10.0 mi Calm Calm - N/A   Overcast
12:35 AM 53.6 °F - 48.2 °F 82% 29.91 in 10.0 mi Calm Calm - N/A   Overcast
12:54 AM 53.6 °F - 48.2 °F 82% 29.92 in 10.0 mi North 3.5 mph - N/A   Overcast
1:15 AM 53.6 °F - 48.2 °F 82% 29.92 in 10.0 mi North 5.8 mph - N/A   Overcast
1:35 AM 53.6 °F - 48.2 °F 82% 29.92 in 10.0 mi North 4.6 mph - N/A   Overcast
1:54 AM 53.6 °F - 48.2 °F 82% 29.93 in 10.0 mi North 5.8 mph - N/A   Overcast
2:15 AM 53.6 °F - 46.4 °F 77% 29.93 in 10.0 mi NNE 6.9 mph - N/A   Overcast
2:34 AM 53.6 °F - 46.4 °F 77% 29.93 in 10.0 mi North 8.1 mph - N/A   Overcast
2:55 AM 53.6 °F - 46.4 °F 77% 29.93 in 10.0 mi North 5.8 mph - N/A   Overcast
3:15 AM 53.6 °F - 46.4 °F 77% 29.93 in 10.0 mi North 3.5 mph - N/A   Overcast
3:34 AM 53.6 °F - 46.4 °F 77% 29.94 in 10.0 mi NNE 3.5 mph - N/A   Overcast
3:55 AM 51.8 °F - 46.4 °F 82% 29.94 in 10.0 mi North 3.5 mph - N/A   Overcast
4:14 AM 51.8 °F - 46.4 °F 82% 29.95 in 10.0 mi Calm Calm - N/A   Overcast
4:35 AM 51.8 °F - 44.6 °F 76% 29.95 in 10.0 mi North 3.5 mph - N/A   Overcast
4:55 AM 51.8 °F - 46.4 °F 82% 29.95 in 10.0 mi Calm Calm - N/A   Overcast
5:14 AM 50.0 °F - 46.4 °F 87% 29.95 in 10.0 mi Calm Calm - N/A   Overcast
5:35 AM 48.2 °F - 44.6 °F 87% 29.96 in 10.0 mi Calm Calm - N/A   Scattered Clouds
5:55 AM 48.2 °F - 44.6 °F 87% 29.96 in 10.0 mi Calm Calm - N/A   Clear
6:14 AM 48.2 °F - 44.6 °F 87% 29.96 in 10.0 mi Calm Calm - N/A   Scattered Clouds
6:35 AM 46.4 °F - 44.6 °F 93% 29.96 in 10.0 mi Calm Calm - N/A   Scattered Clouds
6:54 AM 46.4 °F - 44.6 °F 93% 29.97 in 10.0 mi Calm Calm - N/A   Clear
7:15 AM 44.6 °F - 42.8 °F 93% 29.98 in 10.0 mi Calm Calm - N/A   Clear
7:35 AM 44.6 °F - 42.8 °F 93% 29.99 in 10.0 mi Calm Calm - N/A   Clear
7:54 AM 44.6 °F - 42.8 °F 93% 29.99 in 10.0 mi Calm Calm - N/A   Clear
8:15 AM 46.4 °F - 44.6 °F 93% 30.00 in 10.0 mi Calm Calm - N/A   Clear
8:35 AM 48.2 °F - 44.6 °F 87% 30.00 in 10.0 mi Calm Calm - N/A   Clear
8:54 AM 50.0 °F - 46.4 °F 87% 30.01 in 10.0 mi Calm Calm - N/A   Clear
9:15 AM 51.8 °F - 44.6 °F 76% 30.02 in 10.0 mi NNE 6.9 mph - N/A   Clear
9:34 AM 51.8 °F - 44.6 °F 76% 30.02 in 10.0 mi NE 9.2 mph - N/A   Clear
9:54 AM 53.6 °F - 44.6 °F 72% 30.03 in 10.0 mi NE 8.1 mph - N/A   Scattered Clouds
10:15 AM 53.6 °F - 44.6 °F 72% 30.03 in 10.0 mi NE 6.9 mph - N/A   Scattered Clouds
10:34 AM 55.4 °F - 42.8 °F 63% 30.03 in 10.0 mi ENE 4.6 mph - N/A   Clear
10:54 AM 55.4 °F - 42.8 °F 63% 30.04 in 10.0 mi North 10.4 mph - N/A   Scattered Clouds
11:15 AM 55.4 °F - 42.8 °F 63% 30.04 in 10.0 mi North 10.4 mph 18.4 mph N/A   Scattered Clouds
11:34 AM 57.2 °F - 41.0 °F 55% 30.04 in 10.0 mi North 8.1 mph - N/A   Scattered Clouds
11:54 AM 57.2 °F - 41.0 °F 55% 30.03 in 10.0 mi North 10.4 mph - N/A   Scattered Clouds
12:15 PM 57.2 °F - 41.0 °F 55% 30.04 in 10.0 mi NNW 6.9 mph 17.3 mph N/A   Clear
12:34 PM 57.2 °F - 41.0 °F 55% 30.04 in 10.0 mi North 8.1 mph 16.1 mph N/A   Scattered Clouds
12:54 PM 57.2 °F - 41.0 °F 55% 30.04 in 10.0 mi North 8.1 mph - N/A   Scattered Clouds
1:15 PM 59.0 °F - 41.0 °F 51% 30.04 in 10.0 mi North 10.4 mph - N/A   Mostly Cloudy
1:34 PM 59.0 °F - 42.8 °F 55% 30.04 in 10.0 mi North 9.2 mph - N/A   Scattered Clouds
1:55 PM 60.8 °F - 41.0 °F 48% 30.03 in 10.0 mi North 6.9 mph - N/A   Scattered Clouds
2:15 PM 60.8 °F - 41.0 °F 48% 30.03 in 10.0 mi NNW 8.1 mph - N/A   Scattered Clouds
2:34 PM 60.8 °F - 42.8 °F 52% 30.02 in 10.0 mi North 10.4 mph 17.3 mph N/A   Scattered Clouds
2:55 PM 60.8 °F - 42.8 °F 52% 30.01 in 10.0 mi North 10.4 mph - N/A   Mostly Cloudy
3:15 PM 60.8 °F - 42.8 °F 52% 30.01 in 10.0 mi NE 10.4 mph 17.3 mph N/A   Mostly Cloudy
3:34 PM 60.8 °F - 42.8 °F 52% 30.01 in 10.0 mi Calm Calm - N/A   Scattered Clouds
3:55 PM 60.8 °F - 42.8 °F 52% 30.01 in 10.0 mi North 10.4 mph - N/A   Scattered Clouds
4:15 PM 60.8 °F - 42.8 °F 52% 30.01 in 10.0 mi NNE 6.9 mph - N/A   Scattered Clouds
4:34 PM 60.8 °F - 42.8 °F 52% 30.01 in 10.0 mi North 9.2 mph - N/A   Scattered Clouds
4:55 PM 59.0 °F - 42.8 °F 55% 30.01 in 10.0 mi NNE 5.8 mph - N/A   Clear
5:15 PM 59.0 °F - 42.8 °F 55% 30.01 in 10.0 mi North 5.8 mph - N/A   Clear
5:34 PM 57.2 °F - 42.8 °F 59% 30.01 in 10.0 mi North 6.9 mph - N/A   Clear
5:55 PM 57.2 °F - 42.8 °F 59% 30.02 in 10.0 mi NNE 5.8 mph - N/A   Clear
6:14 PM 57.2 °F - 42.8 °F 59% 30.02 in 10.0 mi NE 8.1 mph - N/A   Clear
6:34 PM 57.2 °F - 42.8 °F 59% 30.03 in 10.0 mi NNE 5.8 mph - N/A   Clear
6:55 PM 55.4 °F - 42.8 °F 63% 30.03 in 10.0 mi NE 6.9 mph - N/A   Clear
7:14 PM 53.6 °F - 42.8 °F 67% 30.03 in 10.0 mi ENE 6.9 mph - N/A   Clear
7:34 PM 53.6 °F - 42.8 °F 67% 30.03 in 10.0 mi NE 5.8 mph - N/A   Clear
7:55 PM 51.8 °F - 42.8 °F 71% 30.03 in 10.0 mi ENE 5.8 mph - N/A   Clear
8:14 PM 48.2 °F - 41.0 °F 76% 30.04 in 10.0 mi ENE 6.9 mph - N/A   Clear
8:35 PM 48.2 °F - 41.0 °F 76% 30.05 in 10.0 mi ENE 4.6 mph - N/A   Clear
8:55 PM 48.2 °F - 42.8 °F 82% 30.05 in 10.0 mi NE 4.6 mph - N/A   Clear
9:14 PM 46.4 °F 43.5 °F 42.8 °F 87% 30.05 in 10.0 mi NE 5.8 mph - N/A   Clear
9:35 PM 46.4 °F 44.3 °F 42.8 °F 87% 30.06 in 10.0 mi NNE 4.6 mph - N/A   Clear
9:55 PM 46.4 °F 45.2 °F 42.8 °F 87% 30.06 in 10.0 mi NE 3.5 mph - N/A   Clear
10:14 PM 46.4 °F 45.2 °F 42.8 °F 87% 30.06 in 10.0 mi NE 3.5 mph - N/A   Clear
10:35 PM 44.6 °F 43.1 °F 42.8 °F 93% 30.06 in 10.0 mi NE 3.5 mph - N/A   Clear
10:55 PM 44.6 °F - 42.8 °F 93% 30.07 in 10.0 mi Calm Calm - N/A   Clear
11:14 PM 44.6 °F - 42.8 °F 93% 30.07 in 10.0 mi Calm Calm - N/A   Clear
11:35 PM 44.6 °F - 42.8 °F 93% 30.07 in 10.0 mi Calm Calm - N/A   Clear
11:55 PM 42.8 °F 40.1 °F 41.0 °F 93% 30.07 in 10.0 mi ENE 4.6 mph - N/A   Clear